H1 CPF 2 NER 2022 5 24 7 144 01 glonass134 H2 1407501 9134 40315 2022 5 24 0 0 0 2022 5 27 23 45 0 900 1 1 0 0 0 1 H9 10 0 59723 0.00000 0 7658961.616 -10725908.749 -21835870.619 10 0 59723 900.00000 0 10281055.919 -10829385.806 -20684490.945 10 0 59723 1800.00000 0 12722834.200 -11101754.844 -19131541.800 10 0 59723 2700.00000 0 14927364.800 -11511593.577 -17207419.103 10 0 59723 3600.00000 0 16846079.076 -12018469.641 -14949666.176 10 0 59723 4500.00000 0 18440553.464 -12574769.734 -12402232.617 10 0 59723 5400.00000 0 19683875.087 -13127841.490 -9614614.086 10 0 59723 6300.00000 0 20561536.752 -13622357.341 -6640890.000 10 0 59723 7200.00000 0 21071826.653 -14002800.847 -3538677.883 10 0 59723 8100.00000 0 21225699.075 -14215971.272 -368024.300 10 0 59723 9000.00000 0 21046133.535 -14213401.754 2809746.808 10 0 59723 9900.00000 0 20567010.815 -13953590.309 5933206.844 10 0 59723 10800.00000 0 19831553.979 -13403950.904 8941994.732 10 0 59723 11700.00000 0 18890399.920 -12542403.328 11777967.234 10 0 59723 12600.00000 0 17799381.898 -11358535.554 14386306.423 10 0 59723 13500.00000 0 16617115.183 -9854289.744 16716564.410 10 0 59723 14400.00000 0 15402485.660 -8044142.349 18723626.542 10 0 59723 15300.00000 0 14212145.181 -5954769.410 20368575.640 10 0 59723 16200.00000 0 13098117.121 -3624208.926 21619441.599 10 0 59723 17100.00000 0 12105611.116 -1100552.591 22451822.519 10 0 59723 18000.00000 0 11271137.674 1559781.561 22849365.504 10 0 59723 18900.00000 0 10621001.243 4294126.879 22804097.528 10 0 59723 19800.00000 0 10170235.107 7035912.878 22316599.122 10 0 59723 20700.00000 0 9922023.603 9717182.272 21396016.162 10 0 59723 21600.00000 0 9867637.217 12271177.813 20059907.745 10 0 59723 22500.00000 0 9986884.957 14634892.841 18333931.054 10 0 59723 23400.00000 0 10249066.816 16751479.980 16251367.125 10 0 59723 24300.00000 0 10614387.909 18572417.506 13852494.637 10 0 59723 25200.00000 0 11035776.015 20059342.212 11183822.002 10 0 59723 26100.00000 0 11461026.583 21185470.798 8297191.385 10 0 59723 27000.00000 0 11835184.578 21936548.748 5248771.285 10 0 59723 27900.00000 0 12103061.643 22311285.412 2097957.200 10 0 59723 28800.00000 0 12211780.528 22321255.728 -1093797.520 10 0 59723 29700.00000 0 12113236.802 21990272.088 -4264196.577 10 0 59723 30600.00000 0 11766371.029 21353252.749 -7351335.953 10 0 59723 31500.00000 0 11139152.390 20454635.215 -10294933.148 10 0 59723 32400.00000 0 10210187.135 19346402.881 -13037524.253 10 0 59723 33300.00000 0 8969881.477 18085810.100 -15525603.400 10 0 59723 34200.00000 0 7421108.084 16732903.854 -17710680.453 10 0 59723 35100.00000 0 5579346.831 15347948.742 -19550235.035 10 0 59723 36000.00000 0 3472293.418 13988865.814 -21008547.519 10 0 59723 36900.00000 0 1138952.404 12708794.578 -22057390.624 10 0 59723 37800.00000 0 -1371746.749 11553881.597 -22676568.653 10 0 59723 38700.00000 0 -4002751.911 10561388.593 -22854294.855 10 0 59723 39600.00000 0 -6691032.520 9758198.815 -22587400.971 10 0 59723 40500.00000 0 -9369975.661 9159782.785 -21881376.548 10 0 59723 41400.00000 0 -11971933.774 8769664.685 -20750239.017 10 0 59723 42300.00000 0 -14430817.881 8579409.303 -19216238.810 10 0 59723 43200.00000 0 -16684629.103 8569127.315 -17309406.818 10 0 59723 44100.00000 0 -18677824.320 8708475.137 -15066954.295 10 0 59723 45000.00000 0 -20363419.111 8958105.011 -12532537.911 10 0 59723 45900.00000 0 -21704742.657 9271502.497 -9755404.954 10 0 59723 46800.00000 0 -22676773.831 9597132.877 -6789435.545 10 0 59723 47700.00000 0 -23267005.199 9880805.442 -3692100.561 10 0 59723 48600.00000 0 -23475801.275 10068156.104 -523355.123 10 0 59723 49500.00000 0 -23316238.144 10107144.164 2655511.536 10 0 59723 50400.00000 0 -22813432.866 9950458.919 5783048.286 10 0 59723 51300.00000 0 -22003391.823 9557735.695 8798814.850 10 0 59723 52200.00000 0 -20931426.702 8897488.958 11644533.679 10 0 59723 53100.00000 0 -19650204.229 7948681.880 14265199.950 10 0 59723 54000.00000 0 -18217510.554 6701866.584 16610129.757 10 0 59723 54900.00000 0 -16693822.584 5159846.823 18633927.651 10 0 59723 55800.00000 0 -15139786.371 3337834.275 20297356.001 10 0 59723 56700.00000 0 -13613706.329 1263090.108 21568090.464 10 0 59723 57600.00000 0 -12169148.661 -1025935.628 22421347.623 10 0 59723 58500.00000 0 -10852757.896 -3480933.773 22840372.832 10 0 59723 59400.00000 0 -9702376.931 -6045482.756 22816778.583 10 0 59723 60300.00000 0 -8745548.837 -8657142.810 22350726.011 10 0 59723 61200.00000 0 -7998463.403 -11249813.454 21450944.673 10 0 59723 62100.00000 0 -7465393.287 -13756258.754 20134588.489 10 0 59723 63000.00000 0 -7138644.627 -16110697.151 18426928.539 10 0 59723 63900.00000 0 -6999025.671 -18251348.966 16360886.531 10 0 59723 64800.00000 0 -7016815.190 -20122835.655 13976415.838 10 0 59723 65700.00000 0 -7153191.178 -21678330.076 11319740.274 10 0 59723 66600.00000 0 -7362060.431 -22881366.599 8442464.038 10 0 59723 67500.00000 0 -7592211.935 -23707233.652 5400569.327 10 0 59723 68400.00000 0 -7789702.496 -24143888.505 2253320.991 10 0 59723 69300.00000 0 -7900372.335 -24192354.195 -937899.758 10 0 59723 70200.00000 0 -7872382.187 -23866580.665 -4110808.643 10 0 59723 71100.00000 0 -7658661.856 -23192775.326 -7203453.213 10 0 59723 72000.00000 0 -7219163.803 -22208231.306 -10155443.035 10 0 59723 72900.00000 0 -6522823.488 -20959703.636 -12909148.973 10 0 59723 73800.00000 0 -5549140.929 -19501403.210 -15410846.071 10 0 59723 74700.00000 0 -4289314.542 -17892695.023 -17611775.769 10 0 59723 75600.00000 0 -2746877.828 -16195599.702 -19469105.471 10 0 59723 76500.00000 0 -937811.197 -14472205.487 -20946765.946 10 0 59723 77400.00000 0 1109876.009 -12782101.207 -22016150.057 10 0 59723 78300.00000 0 3357075.436 -11179939.116 -22656659.684 10 0 59723 79200.00000 0 5754981.994 -9713230.220 -22856091.173 10 0 59723 80100.00000 0 8246908.865 -8420464.078 -22610853.156 10 0 59723 81000.00000 0 10770438.638 -7329630.550 -21926014.205 10 0 59723 81900.00000 0 13259820.166 -6457203.393 -20815181.105 10 0 59723 82800.00000 0 15648510.924 -5807625.759 -19300211.863 10 0 59723 83700.00000 0 17871759.147 -5373316.248 -17410770.627 10 0 59723 84600.00000 0 19869118.963 -5135192.290 -15183734.464 10 0 59723 85500.00000 0 21586794.900 -5063686.125 -12662464.627 10 0 59724 0.00000 0 22979719.743 -5120208.256 -9895957.428 10 0 59724 900.00000 0 24013281.745 -5258995.035 -6937889.991 10 0 59724 1800.00000 0 24664629.626 -5429261.327 -3845583.318 10 0 59724 2700.00000 0 24923505.485 -5577567.120 -678897.461 10 0 59724 3600.00000 0 24792570.893 -5650298.350 2500916.717 10 0 59724 4500.00000 0 24287215.083 -5596157.948 5632389.148 10 0 59724 5400.00000 0 23434854.309 -5368562.947 8655003.727 10 0 59724 6300.00000 0 22273752.240 -4927847.653 11510351.624 10 0 59724 7200.00000 0 20851410.690 -4243180.942 14143243.761 10 0 59724 8100.00000 0 19222597.324 -3294117.545 16502762.409 10 0 59724 9000.00000 0 17447091.572 -2071718.126 18543233.036 10 0 59724 9900.00000 0 15587241.413 -579190.526 20225098.801 10 0 59724 10800.00000 0 13705431.186 1167976.082 21515681.900 10 0 59724 11700.00000 0 11861564.301 3142391.806 22389817.723 10 0 59724 12600.00000 0 10110664.273 5305648.137 22830349.757 10 0 59724 13500.00000 0 8500692.832 7609667.812 22828475.462 10 0 59724 14400.00000 0 7070675.321 9998469.455 22383935.591 10 0 59724 15300.00000 0 5849211.432 12410276.561 21505041.994 10 0 59724 16200.00000 0 4853433.775 14779885.865 20208541.635 10 0 59724 17100.00000 0 4088458.602 17041198.644 18519317.378 10 0 59724 18000.00000 0 3547352.874 19129810.853 16469929.190 10 0 59724 18900.00000 0 3211620.261 20985554.639 14100002.496 10 0 59724 19800.00000 0 3052186.856 22554884.808 11455473.682 10 0 59724 20700.00000 0 3030845.962 23793009.302 8587706.027 10 0 59724 21600.00000 0 3102101.351 24665672.833 5552492.397 10 0 59724 22500.00000 0 3215330.816 25150516.895 2408963.949 10 0 59724 23400.00000 0 3317177.500 25237956.967 -781573.249 10 0 59724 24300.00000 0 3354065.993 24931538.327 -3956849.827 10 0 59724 25200.00000 0 3274734.334 24247754.229 -7054867.588 10 0 59724 26100.00000 0 3032671.939 23215333.541 -10015130.573 10 0 59724 27000.00000 0 2588357.366 21874028.062 -12779846.517 10 0 59724 27900.00000 0 1911198.428 20272951.455 -15295073.098 10 0 59724 28800.00000 0 981090.254 18468541.263 -17511784.701 10 0 59724 29700.00000 0 -210476.361 16522231.586 -19386837.529 10 0 59724 30600.00000 0 -1659804.340 14497936.155 -20883813.445 10 0 59724 31500.00000 0 -3350903.611 12459449.323 -21973725.855 10 0 59724 32400.00000 0 -5255931.956 10467875.268 -22635574.330 10 0 59724 33300.00000 0 -7336144.360 8579193.757 -22856738.123 10 0 59724 34200.00000 0 -9543310.250 6842064.327 -22633202.272 10 0 59724 35100.00000 0 -11821538.346 5295959.718 -21969613.546 10 0 59724 36000.00000 0 -14109432.093 3969704.870 -20879166.892 10 0 59724 36900.00000 0 -16342485.012 2880480.183 -19383326.362 10 0 59724 37800.00000 0 -18455615.873 2033327.814 -17511387.508 10 0 59724 38700.00000 0 -20385738.275 1421178.520 -15299891.115 10 0 59724 39600.00000 0 -22074258.162 1025394.825 -12791900.749 10 0 59724 40500.00000 0 -23469396.370 816804.843 -10036158.849 10 0 59724 41400.00000 0 -24528240.992 757180.877 -7086138.153 10 0 59724 42300.00000 0 -25218445.631 801098.894 -3999006.946 10 0 59724 43200.00000 0 -25519504.566 898099.456 -834527.874 10 0 59724 44100.00000 0 -25423553.467 995058.627 2346088.845 10 0 59724 45000.00000 0 -24935663.722 1038669.131 5481356.430 10 0 59724 45900.00000 0 -24073619.309 977927.791 8510685.136 10 0 59724 46800.00000 0 -22867186.231 766525.295 11375537.014 10 0 59724 47700.00000 0 -21356905.058 365038.616 14020540.809 10 0 59724 48600.00000 0 -19592456.502 -257165.450 16394546.939 10 0 59724 49500.00000 0 -17630667.111 -1120395.319 18451603.591 10 0 59724 50400.00000 0 -15533236.763 -2233532.830 20151836.291 10 0 59724 51300.00000 0 -13364280.811 -3593411.735 21462215.061 10 0 59724 52200.00000 0 -11187787.250 -5184704.096 22357195.055 10 0 59724 53100.00000 0 -9065092.954 -6980321.547 22819218.505 10 0 59724 54000.00000 0 -7052482.356 -8942317.446 22839068.085 10 0 59724 54900.00000 0 -5199007.333 -11023255.411 22416064.069 10 0 59724 55800.00000 0 -3544618.437 -13167990.245 21558100.169 10 0 59724 56700.00000 0 -2118685.234 -15315790.019 20281515.644 10 0 59724 57600.00000 0 -938967.882 -17402713.299 18610804.092 10 0 59724 58500.00000 0 -11083.789 -19364144.091 16578162.386 10 0 59724 59400.00000 0 671507.270 -21137379.612 14222886.374 10 0 59724 60300.00000 0 1126997.880 -22664162.799 11590623.122 10 0 59724 61200.00000 0 1384227.823 -23893052.648 8732492.855 10 0 59724 62100.00000 0 1481220.925 -24781531.567 5704096.772 10 0 59724 63000.00000 0 1463325.682 -25297759.231 2564429.845 10 0 59724 63900.00000 0 1381038.993 -25421896.996 -625279.612 10 0 59724 64800.00000 0 1287606.541 -25146944.998 -3802779.833 10 0 59724 65700.00000 0 1236503.491 -24479054.912 -6906029.625 10 0 59724 66600.00000 0 1278904.753 -23437303.987 -9874430.292 10 0 59724 67500.00000 0 1461254.787 -22052939.404 -12650029.208 10 0 59724 68400.00000 0 1823042.610 -20368125.040 -15178669.393 10 0 59724 69300.00000 0 2394878.712 -18434244.359 -17411060.733 10 0 59724 70200.00000 0 3196957.204 -16309832.248 -19303750.561 10 0 59724 71100.00000 0 4237969.649 -14058224.374 -20819973.831 10 0 59724 72000.00000 0 5514517.092 -11745024.442 -21930366.087 10 0 59724 72900.00000 0 7011045.206 -9435496.915 -22613525.723 10 0 59724 73800.00000 0 8700304.897 -7191995.179 -22856415.545 10 0 59724 74700.00000 0 10544318.157 -5071532.981 -22654597.150 10 0 59724 75600.00000 0 12495807.693 -3123599.939 -22012295.190 10 0 59724 76500.00000 0 14500029.447 -1388310.945 -20942292.044 10 0 59724 77400.00000 0 16496930.433 105035.389 -19465656.659 10 0 59724 78300.00000 0 18423541.157 1338931.794 -17611314.471 10 0 59724 79200.00000 0 20216502.552 2308133.334 -15415468.082 10 0 59724 80100.00000 0 21814622.133 3019607.843 -12920881.093 10 0 59724 81000.00000 0 23161353.417 3491971.093 -10176039.716 10 0 59724 81900.00000 0 24207096.276 3754433.260 -7234208.853 10 0 59724 82800.00000 0 24911223.528 3845303.192 -4152401.076 10 0 59724 83700.00000 0 25243750.794 3810115.067 -990278.264 10 0 59724 84600.00000 0 25186581.373 3699457.209 2190993.466 10 0 59724 85500.00000 0 24734275.581 3566594.774 5329914.026 10 0 59725 0.00000 0 23894313.789 3464986.224 8365823.002 10 0 59725 900.00000 0 22686842.172 3445797.384 11240056.844 10 0 59725 1800.00000 0 21143913.222 3555516.987 13897064.502 10 0 59725 2700.00000 0 19308250.708 3833772.958 16285466.826 10 0 59725 3600.00000 0 17231590.591 4311440.705 18359036.614 10 0 59725 4500.00000 0 14972665.111 5009122.612 20077583.265 10 0 59725 5400.00000 0 12594912.125 5936062.835 21407725.738 10 0 59725 6300.00000 0 10164002.801 7089543.972 22323539.667 10 0 59725 7200.00000 0 7745288.406 8454792.511 22807066.338 10 0 59725 8100.00000 0 5401270.320 10005399.395 22848673.526 10 0 59725 9000.00000 0 3189196.777 11704240.886 22447260.474 10 0 59725 9900.00000 0 1158885.269 13504864.289 21610301.740 10 0 59725 10800.00000 0 -649139.410 15353283.653 20353727.413 10 0 59725 11700.00000 0 -2205113.874 17190113.158 18701639.922 10 0 59725 12600.00000 0 -3491049.749 18952951.086 16685870.767 10 0 59725 13500.00000 0 -4501248.984 20578916.067 14345383.604 10 0 59725 14400.00000 0 -5242298.240 22007229.876 11725533.319 10 0 59725 15300.00000 0 -5732541.589 23181738.032 8877194.045 10 0 59725 16200.00000 0 -6001053.031 24053261.147 5855772.167 10 0 59725 17100.00000 0 -6086151.960 24581676.309 2720123.281 10 0 59725 18000.00000 0 -6033524.617 24737638.583 -468605.230 10 0 59725 18900.00000 0 -5894032.105 24503867.729 -3648182.281 10 0 59725 19800.00000 0 -5721299.490 23875943.710 -6756526.615 10 0 59725 20700.00000 0 -5569190.365 22862575.692 -9732939.489 10 0 59725 21600.00000 0 -5489276.509 21485332.080 -12519310.305 10 0 59725 22500.00000 0 -5528412.556 19777842.566 -15061269.477 10 0 59725 23400.00000 0 -5726520.908 17784506.153 -17309264.064 10 0 59725 24300.00000 0 -6114682.808 15558760.411 -19219533.818 10 0 59725 25200.00000 0 -6713617.883 13160986.034 -20754967.716 10 0 59725 26100.00000 0 -7532617.273 10656136.119 -21885824.006 10 0 59725 27000.00000 0 -8568975.630 8111190.936 -22590300.125 10 0 59725 27900.00000 0 -9807945.574 5592545.623 -22854942.311 10 0 59725 28800.00000 0 -11223215.653 3163440.562 -22674888.228 10 0 59725 29700.00000 0 -12777890.640 881541.397 -22053939.553 10 0 59725 30600.00000 0 -14425931.786 -1203231.407 -21004464.838 10 0 59725 31500.00000 0 -16113995.467 -3050534.638 -19547136.304 10 0 59725 32400.00000 0 -17783592.314 -4631022.159 -17710507.294 10 0 59725 33300.00000 0 -19373475.894 -5927296.205 -15530439.979 10 0 59725 34200.00000 0 -20822160.795 -6934353.572 -13049395.524 10 0 59725 35100.00000 0 -22070465.182 -7659511.450 -10315601.317 10 0 59725 36000.00000 0 -23063972.210 -8121819.101 -7382111.779 10 0 59725 36900.00000 0 -23755308.394 -8350982.697 -4305781.159 10 0 59725 37800.00000 0 -24106145.005 -8385850.634 -1146167.958 10 0 59725 38700.00000 0 -24088840.112 -8272524.403 2035608.337 10 0 59725 39600.00000 0 -23687653.957 -8062175.239 5178036.787 10 0 59725 40500.00000 0 -22899487.926 -7808658.523 8220389.226 10 0 59725 41400.00000 0 -21734116.908 -7566025.917 11103877.718 10 0 59725 42300.00000 0 -20213905.545 -7386039.056 13772774.142 10 0 59725 43200.00000 0 -18373019.743 -7315788.436 16175471.775 10 0 59725 44100.00000 0 -16256165.356 -7395516.655 18265469.810 10 0 59725 45000.00000 0 -13916905.044 -7656736.797 20002262.998 10 0 59725 45900.00000 0 -11415621.353 -8120724.749 21352120.396 10 0 59725 46800.00000 0 -8817208.397 -8797449.095 22288738.918 10 0 59725 47700.00000 0 -6188585.708 -9684984.509 22793759.329 10 0 59725 48600.00000 0 -3596135.195 -10769434.951 22857134.573 10 0 59725 49500.00000 0 -1103165.609 -12025372.246 22477342.580 10 0 59725 50400.00000 0 1232491.633 -13416774.328 21661438.170 10 0 59725 51300.00000 0 3360656.335 -14898426.822 20424941.391 10 0 59725 52200.00000 0 5240653.076 -16417732.015 18791562.362 10 0 59725 53100.00000 0 6842766.865 -17916851.806 16792765.800 10 0 59725 54000.00000 0 8149239.525 -19335096.547 14467181.496 10 0 59725 54900.00000 0 9154764.156 -20611460.456 11859870.203 10 0 59725 55800.00000 0 9866455.826 -21687197.095 9021457.743 10 0 59725 56700.00000 0 10303298.934 -22508325.733 6007153.228 10 0 59725 57600.00000 0 10495093.946 -23027961.441 2875670.212 10 0 59725 58500.00000 0 10480947.998 -23208368.476 -311927.648 10 0 59725 59400.00000 0 10307373.844 -23022647.906 -3493432.837 10 0 59725 60300.00000 0 10026078.950 -22455985.721 -6606726.918 10 0 59725 61200.00000 0 9691540.265 -21506406.584 -9591013.958 10 0 59725 62100.00000 0 9358469.825 -20184999.730 -12388028.151 10 0 59725 63000.00000 0 9079281.124 -18515606.444 -14943189.918 10 0 59725 63900.00000 0 8901666.089 -16533982.044 -17206685.910 10 0 59725 64800.00000 0 8866387.487 -14286467.995 -19134450.443 10 0 59725 65700.00000 0 9005381.832 -11828230.838 -20689028.321 10 0 59725 66600.00000 0 9340254.071 -9221143.131 -21840301.903 10 0 59725 67500.00000 0 9881227.939 -6531396.414 -22566068.630 10 0 59725 68400.00000 0 10626595.973 -3826947.156 -22852458.656 10 0 59725 69300.00000 0 11562691.466 -1174903.086 -22694185.736 10 0 59725 70200.00000 0 12664382.283 1361040.956 -22094628.142 10 0 59725 71100.00000 0 13896064.323 3723011.441 -21065739.771 10 0 59725 72000.00000 0 15213111.387 5861109.755 -19627794.897 10 0 59725 72900.00000 0 16563719.315 7735223.371 -17808973.217 10 0 59725 73800.00000 0 17891066.041 9316421.753 -15644794.562 10 0 59725 74700.00000 0 19135696.398 10587881.756 -13177415.461 10 0 59725 75600.00000 0 20238031.612 11545307.176 -10454801.973 10 0 59725 76500.00000 0 21140898.635 12196828.087 -7529795.253 10 0 59725 77400.00000 0 21791974.148 12562387.176 -4459088.211 10 0 59725 78300.00000 0 22146041.796 12672641.196 -1302132.827 10 0 59725 79200.00000 0 22166969.277 12567425.487 1880001.254 10 0 59725 80100.00000 0 21829323.725 12293847.304 5025795.425 10 0 59725 81000.00000 0 21119558.817 11904088.547 8074456.548 10 0 59725 81900.00000 0 20036724.606 11453010.121 10967075.662 10 0 59725 82800.00000 0 18592670.634 10995657.988 13647749.854 10 0 59725 83700.00000 0 16811733.518 10584774.755 16064647.085 10 0 59725 84600.00000 0 14729921.062 10268420.291 18170994.871 10 0 59725 85500.00000 0 12393625.430 10087800.280 19925974.931 10 0 59726 0.00000 0 9857917.100 10075393.175 21295507.599 10 0 59726 900.00000 0 7184486.724 10253453.970 22252912.250 10 0 59726 1800.00000 0 4439321.293 10632957.865 22779429.557 10 0 59726 2700.00000 0 1690203.925 11213029.202 22864597.804 10 0 59726 3600.00000 0 -995857.960 11980881.319 22506473.345 10 0 59726 4500.00000 0 -3555172.545 12912272.042 21711690.530 10 0 59726 5400.00000 0 -5929767.300 13972458.261 20495358.141 10 0 59726 6300.00000 0 -8069557.319 15117612.191 18880792.282 10 0 59726 7200.00000 0 -9934188.049 16296642.317 16899088.741 10 0 59726 8100.00000 0 -11494475.148 17453344.492 14588540.914 10 0 59726 9000.00000 0 -12733380.434 18528794.070 11993912.589 10 0 59726 9900.00000 0 -13646481.901 19463878.795 9165578.248 10 0 59726 10800.00000 0 -14241917.022 20201865.303 6158546.577 10 0 59726 11700.00000 0 -14539800.917 20690889.691 3031385.907 10 0 59726 12600.00000 0 -14571143.511 20886265.017 -154926.998 10 0 59726 13500.00000 0 -14376311.687 20752505.828 -3338211.272 10 0 59726 14400.00000 0 -14003102.364 20264981.535 -6456314.262 10 0 59726 15300.00000 0 -13504509.605 19411126.255 -9448345.612 10 0 59726 16200.00000 0 -12936282.388 18191151.903 -12255886.835 10 0 59726 17100.00000 0 -12354378.872 16618232.818 -14824150.584 10 0 59726 18000.00000 0 -11812427.401 14718153.323 -17103064.984 10 0 59726 18900.00000 0 -11359303.988 12528432.852 -19048260.423 10 0 59726 19800.00000 0 -11036930.556 10096965.817 -20621938.649 10 0 59726 20700.00000 0 -10878388.233 7480234.265 -21793606.865 10 0 59726 21600.00000 0 -10906425.839 4741169.261 -22540662.859 10 0 59726 22500.00000 0 -11132426.270 1946751.538 -22848820.665 10 0 59726 23400.00000 0 -11555873.455 -834547.480 -22712369.711 10 0 59726 24300.00000 0 -12164340.945 -3535377.189 -22134264.065 10 0 59726 25200.00000 0 -12934000.883 -6092063.295 -21126041.773 10 0 59726 26100.00000 0 -13830630.131 -8447001.685 -19707577.614 10 0 59726 27000.00000 0 -14811069.519 -10550792.663 -17906675.734 10 0 59726 27900.00000 0 -15825073.447 -12364028.916 -15758511.457 10 0 59726 28800.00000 0 -16817471.081 -13858665.359 -13304934.282 10 0 59726 29700.00000 0 -17730547.760 -15018916.790 -10593646.400 10 0 59726 30600.00000 0 -18506546.594 -15841649.040 -7677273.116 10 0 59726 31500.00000 0 -19090185.540 -16336250.201 -4612343.411 10 0 59726 32400.00000 0 -19431085.068 -16523989.988 -1458200.158 10 0 59726 33300.00000 0 -19486005.528 -16436896.280 1724139.366 10 0 59726 34200.00000 0 -19220801.417 -16116197.391 4873151.337 10 0 59726 35100.00000 0 -18612011.608 -15610396.360 7927980.050 10 0 59726 36000.00000 0 -17648019.723 -14973058.293 10829597.849 10 0 59726 36900.00000 0 -16329736.326 -14260403.193 13521929.256 10 0 59726 37800.00000 0 -14670774.262 -13528804.495 15952918.993 10 0 59726 38700.00000 0 -12697108.936 -12832297.149 18075524.776 10 0 59726 39600.00000 0 -10446236.328 -12220198.610 19848616.914 10 0 59726 40500.00000 0 -7965861.777 -11734941.419 21237768.541 10 0 59726 41400.00000 0 -5312171.579 -11410207.540 22215921.988 10 0 59726 42300.00000 0 -2547756.537 -11269442.421 22763918.759 10 0 59726 43200.00000 0 260729.175 -11324811.429 22870882.766 10 0 59726 44100.00000 0 3045079.400 -11576643.418 22534448.751 10 0 59726 45000.00000 0 5738115.665 -12013386.367 21760830.242 10 0 59726 45900.00000 0 8276229.872 -12612078.982 20564724.117 10 0 59726 46800.00000 0 10601785.511 -13339320.788 18969051.540 10 0 59726 47700.00000 0 12665277.875 -14152702.241 17004538.153 10 0 59726 48600.00000 0 14427163.062 -15002636.743 14709139.430 10 0 59726 49500.00000 0 15859278.647 -15834518.939 12127320.349 10 0 59726 50400.00000 0 16945795.371 -16591119.094 9309201.857 10 0 59726 51300.00000 0 17683658.754 -17215112.462 6309589.693 10 0 59726 52200.00000 0 18082500.917 -17651635.879 3186904.143 10 0 59726 53100.00000 0 18164025.552 -17850761.833 2032.032 10 0 59726 54000.00000 0 17960891.783 -17769783.059 -3182875.604 10 0 59726 54900.00000 0 17515144.509 -17375208.392 -6305635.101 10 0 59726 55800.00000 0 16876258.699 -16644382.743 -9305264.821 10 0 59726 56700.00000 0 16098882.101 -15566660.234 -12123196.593 10 0 59726 57600.00000 0 15240374.049 -14144078.866 -14704438.084 10 0 59726 58500.00000 0 14358246.823 -12391506.881 -16998661.399 10 0 59726 59400.00000 0 13507620.075 -10336253.900 -18961195.197 10 0 59726 60300.00000 0 12738797.843 -8017163.107 -20553900.005 10 0 59726 61200.00000 0 12095071.890 -5483223.138 -21745909.299 10 0 59726 62100.00000 0 11610844.753 -2791758.709 -22514222.217 10 0 59726 63000.00000 0 11310151.538 -6276.628 -22844137.218 10 0 59726 63900.00000 0 11205641.961 2805941.809 -22729519.488 10 0 59726 64800.00000 0 11298063.988 5576401.052 -22172898.532 10 0 59726 65700.00000 0 11576268.919 8237997.389 -21185395.772 10 0 59726 66600.00000 0 12017735.554 10727562.749 -19786485.325 10 0 59726 67500.00000 0 12589589.204 12988241.532 -18003594.264 10 0 59726 68400.00000 0 13250070.739 14971603.259 -15871551.541 10 0 59726 69300.00000 0 13950392.280 16639405.321 -13431897.444 10 0 59726 70200.00000 0 14636900.350 17964935.024 -10732067.821 10 0 59726 71100.00000 0 15253454.947 18933877.963 -7824469.369 10 0 59726 72000.00000 0 15743924.433 19544679.240 -4765464.149 10 0 59726 72900.00000 0 16054691.730 19808385.226 -1614282.813 10 0 59726 73800.00000 0 16137067.220 19747974.680 1568112.934 10 0 59726 74700.00000 0 15949507.870 19397209.045 4720197.264 10 0 59726 75600.00000 0 15459550.450 18799051.320 7781054.975 10 0 59726 76500.00000 0 14645378.452 18003720.158 10691542.613 10 0 59726 77400.00000 0 13496957.522 17066460.634 13395414.777 10 0 59726 78300.00000 0 12016691.829 16045124.407 15840395.319 10 0 59726 79200.00000 0 10219573.254 14997659.605 17979174.212 10 0 59726 80100.00000 0 8132815.960 13979614.258 19770312.110 10 0 59726 81000.00000 0 5794989.652 13041756.558 21179036.269 10 0 59726 81900.00000 0 3254685.162 12227910.408 22177913.315 10 0 59726 82800.00000 0 568765.103 11573096.171 22747386.166 10 0 59726 83700.00000 0 -2199730.755 11102054.171 22876164.692 10 0 59726 84600.00000 0 -4983941.404 10828213.158 22561461.902 10 0 59726 85500.00000 0 -7715706.606 10753147.881 21809069.908 99